OE6ATD-13 Weather Reports


Display with metric or nautical units.
time (UTC)temp
F
wind
direction
speed
MPH
gust
MPH
rain 1hr
in
rain 24hr
in
rain mn
in
humidity
%
barometer
mb
20260507163527 70 210 4.0 8.0 0.00 0.00 0.00 49 1009.9
20260507162523 73 175 5.0 9.0 0.00 0.00 0.00 42 1009.8
20260507161519 73 226 5.0 8.0 0.00 0.00 0.00 44 1009.8
20260507160530 71 180 5.0 7.0 0.00 0.00 0.00 51 1009.7
20260507155525 72 188 6.0 10.0 0.00 0.00 0.00 46 1009.5
20260507154521 74 186 7.0 12.0 0.00 0.00 0.00 44 1009.6
20260507153517 74 175 5.0 10.0 0.00 0.00 0.00 45 1009.6
20260507152527 74 180 9.0 14.0 0.00 0.00 0.00 46 1009.6
20260507151524 74 189 7.0 12.0 0.00 0.00 0.00 45 1009.5
20260507150519 74 215 6.0 12.0 0.00 0.00 0.00 45 1009.5
20260507145515 74 185 7.0 12.0 0.00 0.00 0.00 45 1009.7
20260507144526 74 201 6.0 12.0 0.00 0.00 0.00 46 1009.7
20260507143521 74 199 7.0 11.0 0.00 0.00 0.00 47 1009.8
20260507142517 74 189 8.0 14.0 0.00 0.00 0.00 46 1009.7
20260507141528 74 225 6.0 12.0 0.00 0.00 0.00 46 1009.8
20260507140524 74 180 8.0 12.0 0.00 0.00 0.00 47 1009.8
20260507135520 72 183 7.0 15.0 0.00 0.00 0.00 50 1009.9
20260507134515 72 181 7.0 14.0 0.00 0.00 0.00 47 1010.0
20260507133526 72 191 6.0 10.0 0.00 0.00 0.00 44 1010.0
20260507132522 73 187 7.0 12.0 0.00 0.00 0.00 44 1010.1
20260507131525 73 208 9.0 14.0 0.00 0.00 0.00 43 1010.1
20260507130520 71 193 6.0 9.0 0.00 0.00 0.00 50 1010.3
20260507125516 71 179 6.0 10.0 0.00 0.00 0.00 50 1010.4
20260507124527 71 193 6.0 10.0 0.00 0.00 0.00 50 1010.5
20260507123523 72 185 7.0 12.0 0.00 0.00 0.00 46 1010.4
20260507122519 74 196 4.0 12.0 0.00 0.00 0.00 42 1010.5
20260507121530 77 159 4.0 9.0 0.00 0.00 0.00 41 1010.5
20260507120526 76 180 3.0 4.0 0.00 0.00 0.00 39 1010.7
20260507115521 76 143 2.0 5.0 0.00 0.00 0.00 38 1010.7
20260507114517 76 153 3.0 6.0 0.00 0.00 0.00 41 1010.8
20260507113528 75 164 3.0 6.0 0.00 0.00 0.00 42 1010.8
20260507112524 74 149 3.0 6.0 0.00 0.00 0.00 42 1010.9
20260507111521 74 209 4.0 7.0 0.00 0.00 0.00 42 1011.0
20260507110516 74 158 3.0 4.0 0.00 0.00 0.00 43 1011.0
20260507105526 73 170 1.0 4.0 0.00 0.00 0.00 44 1011.1
20260507104522 72 157 3.0 6.0 0.00 0.00 0.00 46 1011.1
20260507103518 72 146 1.0 8.0 0.00 0.00 0.00 45 1011.2
20260507102529 73 180 3.0 7.0 0.00 0.00 0.00 44 1011.3
20260507101524 72 208 2.0 7.0 0.00 0.00 0.00 45 1011.4
20260507100527 73 174 3.0 6.0 0.00 0.00 0.00 44 1011.5
20260507095522 73 174 3.0 7.0 0.00 0.00 0.00 44 1011.5
20260507094518 74 201 4.0 6.0 0.00 0.00 0.00 43 1011.5
20260507093528 74 192 0.0 5.0 0.00 0.00 0.00 45 1011.7
20260507092524 71 191 1.0 4.0 0.00 0.00 0.00 49 1011.6
20260507091520 72 177 2.0 5.0 0.00 0.00 0.00 46 1011.6
20260507090516 70 180 1.0 4.0 0.00 0.00 0.00 52 1011.6
20260507085527 70 173 2.0 6.0 0.00 0.00 0.00 54 1011.6
20260507084523 68 178 2.0 4.0 0.00 0.00 0.00 58 1011.6
20260507083519 66 198 1.0 4.0 0.00 0.00 0.00 60 1011.6
20260507082529 66 188 1.0 4.0 0.00 0.00 0.00 59 1011.6
20260507081525 66 180 0.0 3.0 0.00 0.00 0.00 60 1011.5
20260507080521 65 0.0 0.0 0.00 0.00 0.00 62 1011.2
20260507075517 64 180 0.0 2.0 0.00 0.00 0.00 62 1011.4
20260507074528 63 189 0.0 2.0 0.00 0.00 0.00 62 1011.2
20260507073523 63 0.0 0.0 0.00 0.00 0.00 66 1011.3
20260507072519 62 0.0 0.0 0.00 0.00 0.00 67 1011.2
20260507071515 62 0.0 0.0 0.00 0.00 0.00 68 1011.0
20260507070516 61 0.0 0.0 0.00 0.00 0.00 71 1010.8
20260507065527 60 0.0 0.0 0.00 0.00 0.00 72 1010.8
20260507064522 60 0.0 0.0 0.00 0.00 0.00 73 1010.7
20260507063518 60 0.0 0.0 0.00 0.00 0.00 74 1010.5
20260507062529 59 0.0 0.0 0.00 0.00 0.00 76 1010.6
20260507061525 59 0.0 0.0 0.00 0.00 0.00 77 1010.6
20260507060521 58 0.0 0.0 0.00 0.00 0.00 76 1010.5
20260507055517 58 0.0 0.0 0.00 0.00 0.00 77 1010.3
20260507054528 58 0.0 0.0 0.00 0.00 0.00 77 1010.2
20260507053523 57 0.0 0.0 0.00 0.00 0.00 77 1010.2
20260507052519 57 0.0 0.0 0.00 0.00 0.00 77 1010.2
20260507051530 57 0.0 0.0 0.00 0.00 0.00 77 1010.1
20260507050526 56 0.0 0.0 0.00 0.00 0.00 78 1009.9
20260507045522 56 0.0 0.0 0.00 0.00 0.00 77 1009.9
20260507044517 57 0.0 0.0 0.00 0.00 0.00 76 1009.6
20260507043528 57 0.0 0.0 0.00 0.00 0.00 76 1009.6
20260507042524 56 0.0 0.0 0.00 0.00 0.00 76 1009.5
20260507041520 57 0.0 0.0 0.00 0.00 0.00 76 1009.5
20260507040530 57 0.0 0.0 0.00 0.00 0.00 76 1009.4
20260507035526 56 0.0 0.0 0.00 0.00 0.00 77 1009.4
20260507034521 56 0.0 0.0 0.00 0.00 0.00 77 1009.5
20260507033517 56 0.0 0.0 0.00 0.00 0.00 76 1009.5
20260507032519 56 0.0 0.0 0.00 0.00 0.00 75 1009.4
20260507031515 57 0.0 0.0 0.00 0.00 0.00 74 1009.4
20260507030526 58 0.0 0.0 0.00 0.00 0.00 72 1009.4
20260507025522 58 0.0 0.0 0.00 0.00 0.00 72 1009.4
20260507024518 59 0.0 0.0 0.00 0.00 0.00 71 1009.4
20260507023529 59 0.0 0.0 0.00 0.00 0.00 71 1009.4
20260507022525 59 0.0 0.0 0.00 0.00 0.00 71 1009.5
20260507021520 59 0.0 0.0 0.00 0.00 0.00 71 1009.4
20260507020531 59 0.0 0.0 0.00 0.00 0.00 71 1009.5
20260507015517 60 315 0.0 2.0 0.00 0.00 0.00 71 1009.5
20260507014528 60 0.0 0.0 0.00 0.00 0.00 70 1009.5
20260507013525 60 0.0 0.0 0.00 0.00 0.00 70 1009.3
20260507012520 61 0.0 0.0 0.00 0.00 0.00 69 1009.3
20260507011516 61 0 0.0 1.0 0.00 0.00 0.00 69 1009.2
20260507010527 61 0.0 0.0 0.00 0.00 0.00 68 1009.1
20260507005522 61 276 1.0 4.0 0.00 0.00 0.00 68 1009.2
20260507004518 61 270 0.0 3.0 0.00 0.00 0.00 68 1009.2
20260507003529 61 321 0.0 3.0 0.00 0.00 0.00 67 1009.2
20260507002525 62 274 0.0 4.0 0.00 0.00 0.00 68 1009.2
20260507001521 61 250 0.0 4.0 0.00 0.00 0.00 68 1009.3
20260507000516 61 0.0 0.0 0.00 0.00 0.00 69 1009.5
20260506235527 61 171 0.0 4.0 0.00 0.00 0.00 69 1009.4
20260506234523 61 251 0.0 3.0 0.00 0.00 0.00 67 1009.5
20260506233519 62 297 0.0 4.0 0.00 0.00 0.00 67 1009.5
20260506232530 62 231 0.0 2.0 0.00 0.00 0.00 67 1009.5
20260506231526 62 270 0.0 2.0 0.00 0.00 0.00 67 1009.6
20260506230521 62 0.0 0.0 0.00 0.00 0.00 66 1009.6
20260506225517 62 315 0.0 3.0 0.00 0.00 0.00 66 1009.4
20260506224528 62 225 0.0 1.0 0.00 0.00 0.00 66 1009.5
20260506223524 62 270 0.0 1.0 0.00 0.00 0.00 66 1009.3
20260506222520 63 0.0 0.0 0.00 0.00 0.00 66 1009.2
20260506221516 63 0.0 0.0 0.00 0.00 0.00 66 1009.2
20260506220526 63 0.0 1.0 0.00 0.00 0.00 66 1009.1
20260506215522 62 270 0.0 2.0 0.00 0.00 0.00 67 1009.1
20260506214524 62 234 2.0 8.0 0.00 0.00 0.00 70 1009.3
20260506213520 59 253 0.0 3.0 0.00 0.00 0.00 76 1009.3
20260506212516 59 0.0 0.0 0.00 0.00 0.00 76 1009.1
20260506211527 58 0.0 0.0 0.00 0.00 0.00 75 1009.0
20260506210522 58 0.0 0.0 0.00 0.00 0.00 75 1009.0
20260506205518 59 0.0 0.0 0.00 0.00 0.00 74 1009.0
20260506204529 59 0.0 0.0 0.00 0.00 0.00 73 1008.9
20260506203525 59 0.0 0.0 0.00 0.00 0.00 73 1009.0
20260506202521 59 0.0 0.0 0.00 0.00 0.00 72 1008.9
20260506201517 60 0.0 0.0 0.00 0.00 0.00 71 1008.9
20260506200527 61 0.0 0.0 0.00 0.00 0.00 71 1008.8
20260506195522 61 214 0.0 2.0 0.00 0.00 0.00 70 1008.8
20260506194518 62 0.0 0.0 0.00 0.00 0.00 68 1008.8
20260506193529 62 0.0 0.0 0.00 0.00 0.00 68 1008.9
20260506192524 62 0.0 0.0 0.00 0.00 0.00 64 1008.6
20260506191520 63 180 0.0 1.0 0.00 0.00 0.00 64 1008.6
20260506190516 62 315 3.0 5.0 0.00 0.00 0.00 64 1008.4
20260506185527 63 191 0.0 3.0 0.00 0.00 0.00 61 1008.2
20260506184528 64 0.0 0.0 0.00 0.00 0.00 60 1008.3
20260506183523 64 180 0.0 1.0 0.00 0.00 0.00 59 1008.0
20260506182519 65 237 0.0 5.0 0.00 0.00 0.00 59 1008.0
20260506181515 65 211 0.0 4.0 0.00 0.00 0.00 59 1007.9
20260506180526 66 0.0 0.0 0.00 0.00 0.00 57 1007.7
20260506175522 66 247 0.0 3.0 0.00 0.00 0.00 56 1007.9
20260506174518 67 197 0.0 3.0 0.00 0.00 0.00 54 1007.8
20260506173528 68 204 0.0 3.0 0.00 0.00 0.00 54 1007.8
20260506172525 69 203 2.0 7.0 0.00 0.00 0.00 53 1007.7
20260506171520 71 263 1.0 4.0 0.00 0.00 0.00 51 1007.7
20260506170516 71 262 1.0 3.0 0.00 0.00 0.00 52 1007.6
20260506165527 72 188 1.0 6.0 0.00 0.00 0.00 52 1007.7
20260506164522 70 258 1.0 4.0 0.00 0.00 0.00 54 1007.7